Location: Amsterdam
(30.7274°N, 84.4357°W)
Time: 12:17:36
(UTC+00:00)

Courier 1B Rocket - Pass Details

Date: 12 February 2026
Orbit: 920 x 1201 km, 28.2° (Epoch: 17 March)

Event Time Altitude Azimuth Distance (km) Brightness Sun altitude
Rises 09:59:52 0° 265° (W) 4,018 - -30.9°
Reaches altitude 10° 10:04:03 10° 244° (WSW) 3,091 - -30.0°
Maximum altitude 10:08:12 15° 211° (SSW) 2,720 - -29.1°
Exits shadow 10:09:55 14° 196° (SSW) 2,795 7.2 -28.7°
Drops below altitude 10° 10:12:24 10° 178° (S) 3,121 7.6 -28.2°
Sets 10:16:41 0° 157° (SSE) 4,078 8.5 -27.2°
